GPS BIIR-16M

Last updated on Thu Jul 03 2025 00:02:33 GMT+0000 (Coordinated Universal Time)

1 29601U 06052A 25182.91800134 .00000023 00000+0 00000+0 0 9998 2 29601 55.0113 227.8953 0084768 86.6275 274.4105 2.00564098136386
UTC large
Height (km)
Speed (km/s)
/
Latitude / Longitude
Inclination (degrees)
Orbital Period (minutes)
Azimuth
Elevation
Range (km)
Doppler Factor

Next 0 passes for location: London (51.5072 / 0.1276)

Sorry there are no passes over London.